• In Hungary
  • List of Countries
  • For 7 days
  • Water Temperature
  • Satellite Maps
  • Weather Map
  • News
  • Weather Widgets
  • user-avatar
    Login

    Hourly Weather Nemirov

    Today, 20 September, Thursday

    Time Temperature Precipitation Wind Pressure Humidity
    00:00 +17°C° 0 mm 2 mps 743 mmHg 62%
    01:00 +17°C° 0 mm 2 mps 743 mmHg 62%
    02:00 +16°C° 0 mm 2 mps 743 mmHg 63%
    03:00 +16°C° 0 mm 2 mps 743 mmHg 64%
    04:00 +16°C° 0 mm 1 mps 743 mmHg 64%
    05:00 +15°C° 0 mm 1 mps 743 mmHg 65%
    06:00 +18°C° 0 mm 1 mps 743 mmHg 62%
    07:00 +19°C° 0 mm 1 mps 743 mmHg 60%
    08:00 +20°C° 0 mm 1 mps 744 mmHg 57%
    09:00 +22°C° 0 mm 1 mps 744 mmHg 52%
    10:00 +24°C° 0 mm 2 mps 744 mmHg 47%
    11:00 +25°C° 0 mm 2 mps 744 mmHg 42%
    12:00 +26°C° 0 mm 2 mps 744 mmHg 40%
    13:00 +27°C° 0 mm 2 mps 743 mmHg 38%
    14:00 +27°C° 0 mm 1 mps 743 mmHg 36%
    15:00 +27°C° 0 mm 1 mps 743 mmHg 40%
    16:00 +26°C° 0 mm 1 mps 743 mmHg 43%
    17:00 +24°C° 0 mm 0 mps 742 mmHg 46%
    18:00 +22°C° 0 mm 0 mps 742 mmHg 49%
    19:00 +20°C° 0 mm 0 mps 742 mmHg 52%
    20:00 +18°C° 0 mm 0 mps 742 mmHg 54%
    21:00 +18°C° 0 mm 0 mps 742 mmHg 57%
    22:00 +17°C° 0 mm 0 mps 742 mmHg 59%
    23:00 +17°C° 0 mm 0 mps 742 mmHg 61%

    Tomorrow, 21 September, Friday

    Time Temperature Precipitation Wind Pressure Humidity
    00:00 +17°C° 0 mm 0 mps 742 mmHg 62%
    01:00 +18°C° 0 mm 1 mps 742 mmHg 64%
    02:00 +18°C° 0 mm 1 mps 742 mmHg 65%
    03:00 +18°C° 0 mm 1 mps 742 mmHg 66%
    04:00 +16°C° 0 mm 1 mps 742 mmHg 67%
    05:00 +16°C° 0 mm 1 mps 742 mmHg 68%
    06:00 +18°C° 0 mm 1 mps 742 mmHg 65%
    07:00 +20°C° 0 mm 1 mps 743 mmHg 62%
    08:00 +21°C° 0 mm 1 mps 743 mmHg 59%
    09:00 +23°C° 0 mm 1 mps 743 mmHg 53%
    10:00 +24°C° 0 mm 2 mps 743 mmHg 48%
    11:00 +26°C° 0 mm 2 mps 743 mmHg 42%
    12:00 +27°C° 0 mm 2 mps 743 mmHg 40%
    13:00 +27°C° 0 mm 2 mps 742 mmHg 38%
    14:00 +28°C° 0 mm 2 mps 742 mmHg 35%
    15:00 +27°C° 0 mm 2 mps 741 mmHg 38%
    16:00 +26°C° 0 mm 2 mps 741 mmHg 42%
    17:00 +26°C° 0 mm 2 mps 741 mmHg 45%
    18:00 +24°C° 0 mm 2 mps 741 mmHg 47%
    19:00 +23°C° 0 mm 2 mps 741 mmHg 49%
    20:00 +20°C° 0 mm 2 mps 741 mmHg 51%
    21:00 +19°C° 0 mm 2 mps 741 mmHg 52%
    22:00 +19°C° 0 mm 2 mps 741 mmHg 53%
    23:00 +19°C° 0 mm 3 mps 740 mmHg 54%

    Day after tomorrow, 22 September, Saturday

    Time Temperature Precipitation Wind Pressure Humidity
    00:00 +18°C° 0 mm 3 mps 740 mmHg 55%
    01:00 +18°C° 0 mm 3 mps 740 mmHg 56%
    02:00 +17°C° 0 mm 3 mps 740 mmHg 57%
    03:00 +17°C° 0 mm 3 mps 740 mmHg 57%
    04:00 +17°C° 0 mm 3 mps 740 mmHg 57%
    05:00 +16°C° 0 mm 3 mps 740 mmHg 58%
    06:00 +17°C° 0 mm 3 mps 740 mmHg 56%
    07:00 +18°C° 0 mm 3 mps 740 mmHg 54%
    08:00 +19°C° 0 mm 3 mps 740 mmHg 53%
    09:00 +21°C° 0 mm 4 mps 740 mmHg 48%
    10:00 +23°C° 0 mm 4 mps 740 mmHg 44%
    11:00 +26°C° 0 mm 4 mps 740 mmHg 40%
    12:00 +27°C° 0 mm 4 mps 739 mmHg 38%
    13:00 +28°C° 0 mm 4 mps 739 mmHg 37%
    14:00 +28°C° 0 mm 4 mps 739 mmHg 35%
    15:00 +27°C° 0 mm 3 mps 739 mmHg 39%
    16:00 +27°C° 0 mm 3 mps 738 mmHg 44%
    17:00 +26°C° 0 mm 2 mps 738 mmHg 48%
    18:00 +24°C° 0 mm 3 mps 738 mmHg 56%
    19:00 +21°C° 0 mm 3 mps 739 mmHg 64%
    20:00 +18°C° 0 mm 4 mps 739 mmHg 72%
    21:00 +17°C° 0 mm 4 mps 739 mmHg 72%
    22:00 +15°C° 0 mm 5 mps 739 mmHg 73%
    23:00 +14°C° 0 mm 5 mps 739 mmHg 74%

    23 September, Sunday

    Time Temperature Precipitation Wind Pressure Humidity
    00:00 +13°C° 0.2 mm 5 mps 739 mmHg 75%
    01:00 +11°C° 0.2 mm 6 mps 739 mmHg 76%
    02:00 +10°C° 0.2 mm 6 mps 739 mmHg 77%
    03:00 +10°C° 0.6 mm 6 mps 740 mmHg 80%
    04:00 +9°C° 0.6 mm 5 mps 740 mmHg 82%
    05:00 +9°C° 0.6 mm 5 mps 740 mmHg 85%
    06:00 +9°C° 0 mm 5 mps 740 mmHg 82%
    07:00 +9°C° 0 mm 5 mps 741 mmHg 78%
    08:00 +9°C° 0 mm 5 mps 741 mmHg 75%
    09:00 +12°C° 0 mm 5 mps 741 mmHg 67%
    10:00 +14°C° 0 mm 5 mps 741 mmHg 59%
    11:00 +15°C° 0 mm 5 mps 741 mmHg 50%
    12:00 +16°C° 0 mm 5 mps 741 mmHg 47%
    13:00 +17°C° 0 mm 5 mps 741 mmHg 44%
    14:00 +17°C° 0 mm 5 mps 741 mmHg 41%
    15:00 +18°C° 0 mm 4 mps 741 mmHg 44%
    16:00 +17°C° 0 mm 4 mps 741 mmHg 47%
    17:00 +17°C° 0 mm 3 mps 741 mmHg 50%
    18:00 +15°C° 0 mm 2 mps 741 mmHg 53%
    19:00 +14°C° 0 mm 2 mps 741 mmHg 56%
    20:00 +13°C° 0 mm 1 mps 741 mmHg 60%
    21:00 +12°C° 0 mm 2 mps 741 mmHg 60%
    22:00 +12°C° 0 mm 2 mps 741 mmHg 61%
    23:00 +12°C° 0 mm 2 mps 740 mmHg 62%

    24 September, Monday

    Time Temperature Precipitation Wind Pressure Humidity
    00:00 +12°C° 0 mm 2 mps 740 mmHg 62%
    01:00 +10°C° 0 mm 3 mps 739 mmHg 61%
    02:00 +10°C° 0 mm 3 mps 738 mmHg 61%
    03:00 +11°C° 0 mm 4 mps 737 mmHg 58%
    04:00 +10°C° 0 mm 5 mps 737 mmHg 54%
    05:00 +11°C° 0 mm 6 mps 736 mmHg 51%
    06:00 +12°C° 0 mm 7 mps 735 mmHg 52%
    07:00 +13°C° 0 mm 9 mps 734 mmHg 52%
    08:00 +14°C° 0 mm 10 mps 733 mmHg 52%
    09:00 +17°C° 0 mm 10 mps 732 mmHg 53%
    10:00 +18°C° 0 mm 11 mps 732 mmHg 54%
    11:00 +21°C° 0 mm 11 mps 731 mmHg 54%
    12:00 +23°C° 0 mm 11 mps 730 mmHg 53%
    13:00 +24°C° 0 mm 11 mps 729 mmHg 51%
    14:00 +26°C° 0 mm 11 mps 728 mmHg 50%
    15:00 +24°C° 0.6 mm 10 mps 728 mmHg 56%
    16:00 +22°C° 0.6 mm 10 mps 727 mmHg 63%
    17:00 +19°C° 0.6 mm 9 mps 727 mmHg 69%
    18:00 +17°C° 0.9 mm 9 mps 728 mmHg 69%
    19:00 +15°C° 0.9 mm 9 mps 728 mmHg 70%
    20:00 +12°C° 0.9 mm 9 mps 729 mmHg 70%
    21:00 +11°C° 0 mm 9 mps 729 mmHg 70%
    22:00 +10°C° 0 mm 8 mps 730 mmHg 69%
    23:00 +9°C° 0 mm 8 mps 730 mmHg 69%

    25 September, Tuesday

    Time Temperature Precipitation Wind Pressure Humidity
    00:00 +9°C° 0 mm 8 mps 730 mmHg 68%
    01:00 +9°C° 0 mm 8 mps 730 mmHg 66%
    02:00 +8°C° 0 mm 9 mps 731 mmHg 65%
    03:00 +8°C° 0 mm 9 mps 731 mmHg 65%
    04:00 +8°C° 0 mm 10 mps 731 mmHg 64%
    05:00 +8°C° 0 mm 10 mps 731 mmHg 64%
    06:00 +9°C° 0 mm 11 mps 731 mmHg 64%
    07:00 +9°C° 0 mm 11 mps 732 mmHg 63%
    08:00 +9°C° 0 mm 12 mps 733 mmHg 63%
    09:00 +9°C° 0 mm 11 mps 734 mmHg 61%
    10:00 +9°C° 0 mm 11 mps 734 mmHg 58%
    11:00 +11°C° 0 mm 11 mps 735 mmHg 56%
    12:00 +11°C° 0 mm 10 mps 736 mmHg 56%
    13:00 +11°C° 0 mm 10 mps 736 mmHg 55%
    14:00 +9°C° 0 mm 10 mps 736 mmHg 54%
    15:00 +10°C° 0 mm 9 mps 737 mmHg 55%
    16:00 +10°C° 0 mm 8 mps 737 mmHg 55%
    17:00 +10°C° 0 mm 7 mps 737 mmHg 56%
    18:00 +9°C° 0 mm 6 mps 738 mmHg 58%
    19:00 +8°C° 0 mm 5 mps 738 mmHg 60%
    20:00 +7°C° 0 mm 4 mps 739 mmHg 62%
    21:00 +7°C° 0 mm 4 mps 739 mmHg 65%
    22:00 +6°C° 0 mm 4 mps 739 mmHg 68%
    23:00 +5°C° 0 mm 4 mps 740 mmHg 70%
    Show more